Showing default

DIADEME 1, 2674

Orbit data source: Space-Track

DIADEME 1, 2674 is a payload satellite owned by CNES (FR) in LEO that was launched on Wed, 08 Feb 1967 UTC via a DIAMANT A launch vehicle from the Hamma Guira Space Track Range (HGSTR). Payload-class satellites include a variety of spacecraft equipped with specific instruments for various scientific and technological missions. These include communications satellites like Starlink; space stations such as the ISS; scientific satellites like the Hubble; Earth observation satellites from companies like Planet Labs, Umbra, and HawkEye 360; GPS; miniature CubeSats for education and research; and military/defense satellites.

Loading next visibility...
Identifier
2674, 1967-011A
Orbit
LEO
Country
Flag of FRFR
Related business
Manufacturer
CNES
Mission
Civil Geodetic
Bus & Motor
D-1, Unknown motor
Mass
23 kg wet, 23 kg dry
Launch date (UTC)
1967-02-08 (59 years ago)
Launch vehicle
DIAMANT A
Launch site
Hamma Guira Space Track Range (HGSTR)
Object type
Payload
Rocket body
Debris
Shape & HBR
Cyl + 4 Pan, 0.8 m
Radar Cross Section
0.455 m², Medium (>0.1 m² and < 1m²)

Expand to show TLE details & history
Last TLE update: 1 day ago

TLE from 1 day ago
0 DIADEME 1
1 02674U 67011A   25260.24511730  .00005996  00000-0  69228-3 0  9991
2 02674  39.9182 351.8982 0217571 171.8530 188.5871 14.70282628 49851
Epoch: 2025-09-17T05:52Z
TLE epoch observation values (Epoch: 2025-09-17T05:52:58.134Z)
Latitude
-0.00006°
Longitude
-92.76794°
Altitude
811.077 km
Speed
7.369 km/s
True Right ascension
23h 27m 35s
True Declination
0° 00' 00"
Sunlit
Object was in full shadow at epoch
Visualization orbit readout
Latitude
Unknown
Longitude
Unknown
Altitude
Unknown
Speed
Unknown
Apparent Right ascension
Unknown
Apparent Declination
Unknown
Sunlit
N/A
Visualization observer readout
Local Sidereal Time
05:12:32
Azimuth
Unknown
Elevation
Unknown
Doppler factor
Unknown
Orbital elements
Apogee altitude
815.75 km
Perigee altitude
509.38 km
Semi-major axis
7,040.702 km
Eccentricity
0.02176
Inclination
39.9182°
RAAN
351.8982°
Arg. of periapsis
171.853°
True anomaly
188.2246°
Mean anomaly
188.5871°
Eccentric anomaly
188.40489°
Mean motion
3.67383 °/min
Orbital period
97.99 mins
BSTAR
0.00069228
Loading maneuver chart data...
Computing Atmospheric mass density...

Documentation

Showing up to 5 results
|